Wind_Speed
59 65 70 75 80 83 85 86 89 91 91 91 89 88 88 90 84 78 71 63 58 52 53 54 54 56 59 62 67 73 74 65 68 74 77 85 88 97 103 102 97 93 90 85 84
64 70 74 82 85 85 86 87 89 91 91 94 92 93 95 89 79 71 61 55 54 48 49 51 53 53 54 63 67 71 65 63 74 82 84 83 85 96 99 103 100 97 89 88 87
68 75 81 84 85 86 90 91 92 95 97 96 95 95 91 85 76 66 59 53 52 47 50 50 50 50 52 61 62 65 61 72 79 82 83 84 86 97 95 100 100 99 97 92 90
74 82 85 85 87 91 92 95 96 99 101 101 102 101 89 80 70 63 55 51 51 47 51 55 53 50 56 55 64 65 71 78 83 85 82 82 85 94 95 96 108 104 103 99 92
76 82 86 90 92 95 94 96 98 102 104 108 106 101 88 79 71 58 55 51 48 50 48 54 54 56 52 61 68 66 74 79 83 83 80 89 88 92 96 99 105 104 99 102 101
78 87 90 91 94 96 97 101 102 104 107 109 106 97 89 77 68 59 51 51 43 45 46 52 54 55 57 61 61 67 75 78 81 82 83 85 86 91 92 95 102 106 100 105 107
79 89 91 91 94 98 99 103 104 107 107 108 106 94 88 76 68 57 49 44 45 42 43 49 54 54 60 60 61 69 74 79 81 83 88 88 93 90 94 95 99 104 107 102 108
84 88 89 90 96 99 101 104 106 107 108 108 103 95 84 76 69 53 46 43 43 42 42 46 56 55 60 65 66 72 79 82 80 85 80 84 83 87 94 97 98 102 105 106 106
88 93 93 93 99 101 103 106 111 107 108 107 102 96 83 73 67 53 43 43 42 41 41 43 55 56 62 66 69 74 73 75 79 80 81 85 89 93 96 96 100 101 105 109 110
89 93 94 94 99 102 104 107 110 110 109 109 105 95 82 70 62 52 41 38 40 36 38 41 51 57 61 66 63 66 69 75 79 80 80 82 88 89 94 97 100 101 104 109 107
90 92 92 94 98 98 103 106 110 110 109 108 106 97 83 69 59 48 40 36 35 34 33 38 44 54 61 64 69 72 72 74 78 82 81 81 87 91 93 94 97 102 102 104 105
91 93 90 94 95 100 105 107 108 110 110 108 100 89 80 71 60 48 40 34 33 32 32 37 45 57 62 67 70 74 74 79 81 84 82 83 89 91 92 92 98 101 102 104 102
93 94 91 92 96 103 110 110 107 108 111 109 99 86 77 67 57 49 42 30 30 33 35 37 47 53 58 63 66 68 72 74 79 83 78 84 89 92 94 96 100 101 104 101 102
91 93 89 94 96 101 106 107 111 111 112 108 97 85 74 63 53 47 43 30 26 32 37 40 44 52 57 61 64 63 70 76 79 81 81 85 86 91 94 95 97 99 101 101 97
89 91 93 96 99 107 109 108 111 114 115 108 98 83 72 60 50 45 40 33 24 30 36 38 41 51 56 60 62 65 70 76 79 78 83 86 90 88 92 95 95 94 93 100 97
90 93 91 90 98 98 105 108 108 113 115 107 95 79 68 57 48 42 38 34 25 25 34 36 38 45 55 59 58 71 74 79 81 82 88 87 85 89 89 85 87 91 92 98 99
91 92 92 93 98 100 107 107 108 109 111 104 91 75 64 55 47 40 36 34 26 23 31 37 38 44 51 55 64 67 70 76 81 85 83 84 86 89 83 85 84 85 89 94 96
94 91 92 91 91 94 100 104 110 108 110 99 85 74 62 55 45 39 34 33 26 24 28 36 39 43 50 55 63 63 68 75 79 81 80 83 81 78 79 81 79 82 87 92 97
94 93 95 90 94 96 100 103 104 106 101 93 83 71 61 52 43 37 32 30 26 24 26 33 39 41 49 57 62 64 70 75 76 75 77 73 68 79 77 76 77 77 84 85 90
92 92 93 93 92 95 98 102 100 101 98 89 79 69 60 50 41 35 32 27 25 23 27 29 38 43 48 55 58 60 71 70 69 73 72 66 72 79 77 78 77 74 76 82 89
92 95 93 95 96 93 93 98 100 102 93 86 78 67 58 47 38 34 31 25 24 22 25 28 35 44 46 52 57 58 62 63 68 71 69 70 72 75 77 76 75 74 76 81 88
96 99 98 98 101 96 95 98 102 99 89 83 75 64 54 43 36 31 31 25 22 22 24 28 33 40 45 49 54 61 66 66 67 66 71 72 76 76 80 78 76 75 73 79 86
97 98 98 98 99 96 99 100 96 97 86 78 73 61 51 41 35 30 28 25 22 21 25 27 32 39 43 45 50 54 58 62 64 71 71 69 68 72 76 74 77 76 73 78 82
99 102 99 95 100 99 98 97 98 92 84 73 69 58 48 39 34 30 25 24 21 22 23 25 28 37 43 46 50 52 54 58 63 64 67 64 68 72 75 74 75 76 74 77 79
100 101 98 99 101 98 101 98 96 89 80 71 62 56 43 37 32 28 26 22 21 22 23 25 30 36 41 45 48 52 55 57 60 66 64 66 70 71 73 75 74 75 75 78 80
102 103 100 101 102 99 99 97 96 86 79 68 58 50 41 35 31 27 25 21 21 23 24 26 29 33 38 43 50 52 55 61 65 67 65 68 70 72 71 73 72 72 76 78 81
103 103 99 99 102 99 96 96 92 85 74 65 55 45 39 33 30 27 24 22 21 24 24 26 27 31 38 43 53 56 59 61 63 64 67 70 71 70 71 73 72 74 77 78 79
Wind_Direction
330 327 326 324 324 323 320 319 319 317 316 314 314 316 315 314 312 308 304 298 289 281 272 264 255 245 239 236 233 232 227 223 224 224 222 222 213 217 213 214 219 222 225 225 222
330 330 327 327 323 323 322 321 320 317 317 316 317 317 318 317 313 309 304 293 283 276 268 262 255 244 235 233 230 230 226 221 222 221 221 221 216 217 216 213 216 220 221 226 227
330 330 326 324 324 323 323 322 320 318 317 317 318 319 320 318 314 310 302 292 282 273 262 254 250 242 235 230 227 227 220 219 222 221 221 219 216 217 215 214 214 218 219 221 226
332 331 324 323 323 323 323 322 322 321 319 320 320 322 322 321 317 313 302 290 278 270 262 256 244 237 230 225 223 220 216 217 219 220 219 219 217 219 215 213 213 215 219 219 221
330 328 327 325 323 323 323 323 323 322 322 322 322 324 322 320 319 314 301 291 281 270 255 249 245 232 227 223 219 214 215 215 218 219 218 219 216 217 214 214 215 212 218 220 220
330 331 327 326 323 323 323 323 323 322 322 321 323 326 323 323 320 315 302 294 280 267 256 246 240 233 222 223 218 213 214 215 216 217 216 218 216 219 217 214 217 214 213 221 222
330 330 329 327 324 325 325 324 323 322 322 323 324 326 326 325 322 316 306 296 280 266 253 243 234 228 224 218 215 213 213 214 214 216 215 214 215 214 217 213 215 216 212 219 223
333 329 330 327 327 326 325 324 323 324 324 324 327 329 328 325 321 319 307 295 279 268 255 241 233 224 222 216 211 211 211 211 214 217 215 217 216 214 217 214 214 216 216 216 221
331 330 330 328 326 325 325 324 323 325 325 325 329 330 329 325 321 318 308 293 280 268 256 237 228 222 219 216 210 210 210 211 214 217 215 215 216 214 214 215 213 214 216 217 217
332 329 329 326 325 324 324 325 324 326 327 328 328 330 329 326 322 318 310 293 281 268 255 233 225 221 218 216 212 210 211 213 212 215 214 214 218 218 218 215 213 214 215 219 218
332 330 329 325 325 324 323 323 325 325 326 329 331 331 330 328 324 319 311 295 278 265 250 232 225 222 217 215 212 208 208 212 212 214 212 211 218 219 217 218 215 213 216 220 219
331 329 330 326 325 324 323 325 325 326 327 328 332 332 330 327 324 320 310 294 276 261 245 229 222 220 216 213 213 209 210 211 211 212 211 210 214 218 217 215 217 214 216 218 222
329 329 330 328 325 323 325 323 326 326 327 331 334 333 330 325 322 319 310 296 274 259 246 225 221 220 214 215 212 211 210 214 213 213 209 212 213 215 217 215 217 215 214 217 217
330 329 331 331 326 325 324 325 325 326 328 332 333 333 331 325 321 316 309 298 273 255 244 230 221 218 212 212 212 208 210 213 215 215 209 213 214 216 218 216 218 217 216 216 218
331 327 329 330 327 325 326 325 326 326 329 334 334 332 332 327 322 317 308 298 276 252 244 235 221 220 215 214 209 207 208 214 215 214 213 213 213 215 218 218 217 217 217 218 216
331 330 329 330 328 329 328 328 328 327 330 334 334 333 331 326 322 316 306 296 280 246 241 234 222 219 219 215 210 211 206 211 214 214 214 214 213 218 218 220 220 218 216 216 217
331 333 330 328 328 328 328 328 328 330 331 334 334 335 331 327 320 313 303 292 277 246 233 235 222 215 218 214 213 211 209 211 214 216 216 214 213 217 216 220 219 218 217 216 216
332 335 334 332 332 333 331 330 329 331 333 335 336 333 331 327 320 312 302 291 275 250 228 231 227 214 215 210 213 211 211 213 216 217 217 216 214 217 219 220 218 218 218 217 216
336 334 334 333 333 334 332 330 331 331 337 336 337 333 331 327 319 311 301 288 270 253 235 228 229 220 214 214 215 210 211 214 216 217 219 218 213 217 221 220 220 216 219 218 217
335 334 336 336 338 338 334 330 333 335 336 336 336 333 331 325 318 311 302 286 268 252 242 228 227 225 216 217 215 213 214 214 213 216 220 215 214 216 217 219 221 216 217 217 215
332 332 337 337 337 337 333 330 333 333 335 337 335 332 330 324 317 311 300 284 270 256 242 235 227 226 221 216 214 213 218 217 215 214 213 214 213 216 217 219 219 217 213 214 214
332 333 336 334 338 334 332 331 330 336 335 337 334 331 328 322 317 310 299 285 269 257 243 233 231 226 227 219 217 215 211 212 213 214 215 212 214 212 216 214 216 218 214 213 215
330 333 334 336 338 339 333 330 335 338 334 338 331 330 326 322 317 310 298 285 271 257 246 234 230 226 225 222 219 218 218 216 211 214 212 212 212 214 218 215 215 216 214 213 213
328 330 334 334 337 337 337 335 333 338 336 338 330 329 324 320 317 312 298 286 273 262 250 237 229 228 224 218 214 212 216 218 217 215 215 210 211 214 216 217 213 215 213 212 213
326 330 335 338 337 337 336 335 337 339 337 336 330 326 324 320 318 311 300 289 278 264 254 242 227 221 220 215 215 211 210 211 214 214 213 208 210 213 215 215 214 213 213 211 211
328 332 334 338 340 337 338 337 340 338 336 335 329 326 324 322 318 311 300 292 280 268 257 244 230 221 212 212 212 212 212 210 210 211 211 208 210 212 213 216 216 213 214 213 211
329 331 337 338 341 339 338 335 338 338 335 333 328 326 324 322 317 310 301 293 284 270 258 244 232 216 209 207 209 210 211 213 212 212 211 208 210 210 212 213 213 213 212 213 212
Height
10737 10727 10717 10707 10698 10687 10674 10662 10651 10637 10624 10612 10601 10591 10580 10571 10560 10550 10545 10536 10531 10533 10532 10532 10537 10542 10546 10558 10563 10568 10579 10603 10615 10621 10631 10627 10647 10650 10666 10680 10695 10705 10724 10739 10738
10728 10719 10707 10697 10686 10676 10662 10650 10639 10621 10606 10592 10582 10570 10561 10550 10538 10530 10524 10515 10507 10511 10511 10511 10515 10523 10530 10534 10545 10552 10574 10596 10592 10594 10600 10618 10635 10638 10653 10669 10681 10695 10712 10722 10733
10720 10711 10700 10687 10676 10662 10649 10637 10621 10605 10590 10576 10563 10553 10539 10526 10517 10507 10502 10495 10488 10491 10488 10491 10497 10505 10513 10515 10530 10542 10566 10566 10569 10576 10588 10601 10616 10620 10640 10658 10673 10684 10694 10705 10716
10713 10702 10687 10675 10662 10650 10639 10622 10608 10591 10572 10556 10542 10531 10517 10504 10497 10486 10479 10474 10468 10470 10470 10471 10478 10487 10491 10505 10510 10523 10535 10539 10546 10558 10574 10588 10600 10608 10625 10648 10642 10660 10674 10689 10702
10703 10690 10678 10664 10650 10637 10624 10607 10592 10572 10554 10537 10520 10510 10497 10484 10476 10469 10455 10450 10450 10446 10451 10449 10457 10465 10478 10482 10487 10509 10516 10522 10528 10544 10562 10565 10581 10594 10610 10620 10636 10650 10669 10678 10687
10693 10681 10666 10653 10638 10621 10607 10591 10575 10555 10537 10520 10502 10491 10476 10465 10456 10447 10437 10427 10428 10426 10431 10433 10438 10450 10456 10465 10481 10493 10496 10508 10516 10529 10541 10553 10570 10579 10598 10614 10621 10638 10654 10660 10671
10684 10671 10657 10642 10623 10606 10590 10577 10559 10539 10520 10501 10487 10474 10458 10443 10434 10428 10417 10411 10405 10407 10413 10416 10421 10431 10440 10449 10464 10473 10483 10491 10501 10512 10520 10535 10544 10565 10577 10598 10607 10623 10636 10647 10658
10673 10661 10648 10629 10611 10594 10577 10560 10545 10528 10504 10483 10469 10455 10442 10424 10415 10413 10401 10393 10389 10389 10396 10402 10403 10413 10422 10430 10440 10451 10459 10472 10490 10494 10510 10520 10539 10554 10560 10577 10593 10607 10621 10633 10647
10662 10649 10634 10619 10600 10582 10563 10543 10525 10513 10491 10469 10450 10437 10424 10410 10397 10394 10387 10377 10372 10374 10378 10384 10386 10397 10402 10414 10424 10433 10455 10469 10472 10485 10494 10506 10521 10533 10543 10560 10576 10589 10604 10616 10631
10652 10637 10623 10605 10587 10570 10550 10529 10503 10486 10469 10453 10438 10422 10407 10396 10383 10376 10371 10365 10357 10360 10362 10368 10373 10382 10390 10400 10422 10433 10443 10451 10460 10469 10481 10497 10508 10522 10533 10545 10562 10576 10590 10601 10619
10639 10625 10610 10592 10574 10556 10537 10520 10500 10477 10455 10434 10416 10398 10384 10377 10368 10364 10358 10351 10346 10346 10351 10355 10363 10371 10376 10389 10395 10410 10422 10434 10445 10452 10467 10486 10491 10502 10519 10534 10549 10562 10578 10590 10606
10628 10613 10599 10579 10562 10540 10521 10506 10485 10464 10445 10428 10410 10390 10372 10358 10351 10348 10345 10341 10336 10335 10338 10342 10347 10352 10361 10370 10381 10395 10409 10415 10424 10436 10452 10465 10474 10485 10501 10520 10528 10548 10563 10577 10592
10617 10601 10586 10568 10546 10526 10504 10483 10466 10448 10429 10413 10394 10378 10363 10348 10338 10333 10330 10330 10326 10324 10325 10330 10334 10342 10352 10360 10370 10385 10399 10407 10413 10425 10445 10450 10459 10471 10483 10498 10509 10530 10544 10562 10580
10604 10588 10575 10556 10537 10516 10495 10472 10451 10430 10415 10399 10384 10365 10351 10338 10326 10321 10317 10317 10315 10314 10313 10318 10328 10333 10338 10347 10360 10376 10386 10389 10399 10413 10430 10435 10451 10458 10469 10483 10498 10515 10533 10552 10569
10594 10578 10563 10543 10524 10501 10482 10459 10438 10417 10398 10381 10368 10353 10339 10327 10315 10310 10306 10304 10304 10303 10302 10309 10317 10324 10330 10335 10348 10360 10371 10378 10386 10404 10412 10421 10430 10451 10456 10467 10485 10507 10528 10540 10557
10583 10568 10550 10532 10513 10489 10467 10445 10426 10402 10385 10368 10352 10337 10325 10316 10306 10300 10296 10292 10293 10295 10292 10297 10306 10313 10318 10325 10339 10339 10351 10362 10371 10384 10390 10407 10427 10432 10446 10473 10481 10496 10512 10525 10541
10572 10556 10538 10520 10499 10476 10455 10433 10412 10391 10371 10355 10340 10326 10313 10306 10297 10290 10286 10283 10283 10285 10285 10286 10294 10300 10307 10318 10320 10331 10342 10351 10358 10365 10386 10398 10410 10419 10442 10450 10469 10487 10500 10512 10530
10560 10546 10527 10509 10487 10467 10444 10421 10400 10380 10359 10345 10331 10314 10305 10294 10287 10280 10276 10273 10273 10275 10277 10277 10283 10290 10297 10305 10310 10325 10335 10341 10350 10362 10379 10387 10406 10426 10438 10443 10460 10477 10488 10498 10513
10550 10534 10517 10498 10477 10454 10432 10410 10389 10371 10352 10332 10320 10307 10294 10286 10277 10272 10267 10264 10263 10266 10270 10271 10274 10281 10287 10292 10300 10311 10321 10329 10339 10356 10367 10389 10415 10414 10427 10439 10449 10467 10478 10497 10514
10542 10523 10505 10486 10464 10442 10419 10398 10377 10358 10339 10324 10309 10295 10285 10276 10269 10262 10259 10257 10255 10258 10260 10264 10266 10270 10277 10284 10294 10307 10303 10318 10334 10347 10362 10388 10395 10402 10416 10425 10439 10457 10474 10487 10501
10528 10509 10491 10473 10451 10429 10406 10387 10367 10348 10328 10311 10299 10286 10275 10267 10261 10254 10251 10250 10247 10249 10251 10254 10258 10260 10269 10275 10283 10296 10303 10318 10326 10337 10354 10370 10384 10392 10405 10417 10429 10444 10459 10474 10488
10517 10497 10480 10460 10437 10418 10395 10374 10356 10336 10319 10301 10289 10278 10266 10258 10253 10248 10243 10242 10240 10240 10242 10244 10249 10253 10257 10267 10275 10282 10288 10301 10313 10332 10342 10356 10365 10380 10387 10403 10417 10432 10450 10464 10476
10510 10493 10473 10452 10427 10405 10382 10362 10343 10323 10307 10291 10278 10269 10258 10251 10244 10240 10237 10235 10233 10232 10232 10236 10239 10242 10249 10260 10269 10279 10289 10298 10308 10313 10327 10345 10362 10372 10379 10395 10407 10422 10439 10452 10464
10494 10476 10463 10442 10417 10395 10370 10349 10331 10312 10294 10283 10268 10261 10250 10243 10237 10233 10231 10229 10226 10224 10224 10227 10232 10234 10240 10249 10257 10268 10281 10291 10300 10312 10322 10339 10349 10356 10368 10383 10398 10412 10428 10441 10454
10481 10463 10447 10425 10404 10381 10359 10338 10319 10300 10287 10275 10262 10250 10244 10235 10229 10226 10223 10222 10219 10217 10216 10218 10221 10225 10232 10241 10251 10258 10268 10279 10291 10298 10312 10325 10334 10346 10359 10372 10387 10401 10416 10430 10443
10463 10447 10432 10411 10390 10368 10347 10328 10307 10293 10276 10266 10255 10244 10236 10228 10222 10219 10216 10215 10212 10209 10208 10208 10212 10217 10224 10233 10241 10251 10258 10266 10274 10286 10302 10315 10325 10337 10350 10365 10379 10393 10406 10418 10431
10452 10434 10418 10398 10378 10356 10335 10317 10298 10278 10271 10256 10246 10238 10228 10221 10216 10212 10209 10207 10205 10201 10200 10201 10204 10210 10216 10224 10230 10238 10245 10255 10267 10279 10292 10303 10315 10330 10340 10353 10367 10380 10394 10406 10421